Weather observations for the past three days for
Rolla / Vichy, Rolla National Airport
Imperial (Metric)
Date Time (cdt) Wind (mph) Vis. (mi.) Weather Sky Cond. Temperature (ºF) Relative Humidity Wind Chill (°F) Heat Index (°F) Pressure Precipitation (in)
Air Dwpt 6 hour altimeter (in) sea level (mb) 1 hr 3 hr 6 hr
Max. Min.
14 01:53 S 10 10.00 Fair CLR 75.9 71.1 85% 76 30.1 1018.2
14 00:53 S 13 10.00 Fair CLR 77 72 82 75.9 85% 78 30.12 1018.8
13 23:53 S 10 10.00 Fair CLR 78.1 72 82% 80 30.13 1019.1
13 22:53 S 10 10.00 Fair CLR 77 73 88% 78 30.13 1019.2
13 21:53 S 9 10.00 Fair CLR 75.9 72 88% 76 30.13 1019.2
13 20:53 S 7 10.00 Fair CLR 75.9 71.1 85% 76 30.12 1018.9
13 19:53 S 7 10.00 Fair CLR 79 72 79% 82 30.12 1018.9
13 18:53 S 9 10.00 Fair CLR 82 73 82.9 75 74% 87 30.12 1018.7
13 17:53 S 10 10.00 Fair CLR 82.9 72 70% 88 30.13 1018.9
13 16:53 S 10 10.00 Fair CLR 82 72 72% 87 30.13 1019.2
13 15:53 S 12 10.00 Fair CLR 82.9 72 70% 88 30.15 1019.6
13 14:53 S 8 10.00 Fair CLR 80.1 71.1 74% 84 30.16 1020.1
13 13:53 S 7 10.00 Fair CLR 78.1 69.1 74% 80 30.15 1019.8
13 12:53 SE 8 10.00 Mostly Cloudy FEW080 BKN110 75 69.1 77 71.1 82% 75 30.18 1021.0 0.03
13 11:53 S 12 10.00 Fair CLR 72 68 87% 30.2 1021.7
13 10:53 SW 8 10.00 Fair CLR 71.1 66.9 87% 30.23 1022.7
13 09:53 SW 9 10.00 Partly Cloudy SCT060 SCT075 73 69.1 87% 30.23 1022.6 0.03
13 08:53 SW 12 10.00 A Few Clouds FEW070 73 70 90% 30.21 1022.0 0.01
13 07:53 S 9 7.00 Light Rain FEW050 BKN110 75 70 84% 75 30.19 1021.0 0.02
13 06:53 S 8 10.00 Fair CLR 77 70 77 73 79% 79 30.18 1020.6
13 05:53 S 10 10.00 Fair CLR 75 69.1 82% 75 30.16 1019.9
13 04:53 S 10 10.00 Fair CLR 73.9 70 88% 30.15 1019.6
13 03:53 S 9 10.00 Fair CLR 73.9 70 88% 30.14 1019.3
13 02:53 S 9 10.00 Fair CLR 73.9 70 88% 30.13 1019.1
13 01:53 S 6 10.00 Fair CLR 73 71.1 94% 30.14 1019.3
13 00:53 SE 5 10.00 Fair CLR 72 71.1 82 72 97% 30.14 1019.5
12 23:53 S 7 10.00 Fair CLR 73.9 72 94% 30.14 1019.6
12 22:53 S 7 10.00 Fair CLR 73.9 71.1 91% 30.14 1019.6
12 21:53 S 7 10.00 Fair CLR 75.9 71.1 85% 76 30.13 1019.2
12 20:53 SE 8 10.00 Fair CLR 77 71.1 82% 79 30.12 1018.8
12 19:53 SE 5 10.00 Fair CLR 80.1 71.1 74% 84 30.12 1018.7
12 18:53 S 7 10.00 Fair CLR 82 70 86 82 67% 86 30.1 1018.2
12 17:53 S 7 10.00 Fair CLR 84 69.1 61% 88 30.1 1017.8
12 16:53 S 6 10.00 Fair CLR 84 69.1 61% 88 30.11 1018.3
12 15:53 SW 10 10.00 Fair CLR 84 69.1 61% 88 30.11 1018.5
12 14:53 SW 10 10.00 Fair CLR 82.9 68 61% 86 30.13 1019.0
12 13:53 S 9 10.00 Fair CLR 82.9 66.9 59% 86 30.14 1019.4
12 12:53 S 8 10.00 Fair CLR 84 69.1 84 70 61% 88 30.14 1019.5 0.04
12 11:53 S 9 10.00 Partly Cloudy SCT110 81 66.9 62% 83 30.14 1019.6
12 10:53 SE 13 10.00 Fair CLR 78.1 69.1 74% 80 30.14 1019.6
12 08:53 Calm 10.00 A Few Clouds FEW120 71.1 66 84% 30.13 1019.2 0.02
12 07:53 S 12 10.00 Light Rain FEW095 BKN120 70 68 93% 30.1 1018.0 0.02
12 06:53 SW 6 10.00 Light Rain FEW060 SCT100 BKN120 72 69.1 73 71.1 91% 30.11 1018.5
12 05:53 SE 8 10.00 Mostly Cloudy SCT055 BKN100 73 69.1 87% 30.08 1017.4
12 03:53 E 6 10.00 Fair CLR 72 69.1 91% 30.05 1016.5
12 02:53 SE 5 10.00 Fair CLR 71.1 69.1 94% 30.06 1016.6
12 01:53 E 5 10.00 Mostly Cloudy BKN100 73 69.1 87% 30.07 1017.2
12 00:53 E 6 10.00 Fair CLR 72 68 84 72 87% 30.08 1017.3
11 23:53 E 5 10.00 Fair CLR 73 69.1 87% 30.09 1017.8
11 22:53 E 6 10.00 Fair CLR 73 68 84% 30.08 1017.5
11 21:53 E 3 10.00 Fair CLR 73.9 70 88% 30.08 1017.3
11 20:53 Calm 10.00 Fair CLR 75.9 70 82% 77 30.06 1016.8
11 19:53 Calm 10.00 Partly Cloudy SCT095 82 70 67% 86 30.06 1016.6
11 18:53 Calm 10.00 A Few Clouds FEW090 84 68 84.9 81 59% 87 30.05 1016.5
11 17:53 Calm 10.00 Partly Cloudy SCT090 84 68 59% 87 30.05 1016.5
11 16:53 Vrbl 3 10.00 A Few Clouds FEW085 82.9 69.1 63% 87 30.06 1016.9
11 15:53 SW 5 10.00 Mostly Cloudy BKN090 82.9 69.1 63% 87 30.07 1017.3
11 14:53 W 7 10.00 A Few Clouds FEW075 FEW090 84 69.1 61% 88 30.08 1017.2
11 13:53 W 7 10.00 A Few Clouds FEW080 82 66 58% 84 30.08 1017.4
11 12:53 W 8 10.00 Fair CLR 81 70 82.9 68 69% 84 30.09 1017.7
11 11:53 SW 9 10.00 A Few Clouds FEW110 80.1 69.1 69% 83 30.1 1018.0
11 10:53 SW 10 10.00 Fair CLR 80.1 69.1 69% 83 30.1 1018.0
11 09:53 SW 7 10.00 A Few Clouds FEW095 77 69.1 77% 79 30.09 1017.9
11 08:53 S 3 10.00 Fair CLR 73.9 69.1 85% 30.09 1017.9
11 07:53 NE 6 10.00 Partly Cloudy FEW090 SCT110 70 66.9 90% 30.09 1017.9
11 06:53 N 3 10.00 A Few Clouds FEW110 68 64.9 68 66 90% 30.08 1017.5
11 05:53 S 6 10.00 Fair CLR 66.9 64 91% 30.05 1016.4
11 04:53 S 5 10.00 Fair CLR 66 64 93% 30.03 1015.9
11 03:53 S 5 10.00 Fair CLR 66.9 64 91% 30.03 1015.7
11 02:53 SW 3 10.00 Fair CLR 66.9 64.9 93% 30.03 1015.9
Date Time (cdt) Wind (mph) Vis. (mi.) Weather Sky Cond. Air Dwpt Max. Min. Relative Humidity Wind Chill (°F) Heat Index (°F) altimeter (in) sea level (mb) 1 hr 3 hr 6 hr
6 hour
Temperature (ºF) Pressure Precipitation (in)